| time (UTC) | temp C | wind direction | speed KPH | gust KPH | rain 1hr cm | rain 24hr cm | rain mn cm | humidity % | barometer mb |
| 20260503203511 | 23 | 187 | 6.4 | 14.5 | 0.00 | 0.00 | 0.00 | 14 | 1012.5 |
| 20260503203011 | 23 | 248 | 4.8 | 32.2 | 0.00 | 0.00 | 0.00 | 14 | 1012.7 |
| 20260503202504 | 23 | 333 | 8.0 | 32.2 | 0.00 | 0.00 | 0.00 | 14 | 1012.8 |
| 20260503202004 | 23 | 194 | 12.9 | 30.6 | 0.00 | 0.00 | 0.00 | 14 | 1011.6 |
| 20260503201512 | 23 | 263 | 9.7 | 29.0 | 0.00 | 0.00 | 0.00 | 14 | 1012.9 |
| 20260503201007 | 22 | 280 | 1.6 | 9.7 | 0.00 | 0.00 | 0.00 | 15 | 1012.9 |
| 20260503200510 | 22 | 349 | 4.8 | 9.7 | 0.00 | 0.00 | 0.00 | 15 | 1012.9 |
| 20260503200022 | 22 | 323 | 3.2 | 17.7 | 0.00 | 0.00 | 0.00 | 15 | 1012.9 |
| 20260503195510 | 22 | 248 | 1.6 | 17.7 | 0.00 | 0.00 | 0.00 | 15 | 1013.0 |
| 20260503195005 | 22 | 306 | 6.4 | 16.1 | 0.00 | 0.00 | 0.00 | 15 | 1013.0 |
| 20260503194509 | 22 | 341 | 3.2 | 22.5 | 0.00 | 0.00 | 0.00 | 15 | 1013.2 |
| 20260503194005 | 22 | 9 | 3.2 | 22.5 | 0.00 | 0.00 | 0.00 | 15 | 1013.1 |
| 20260503193506 | 22 | 341 | 4.8 | 16.1 | 0.00 | 0.00 | 0.00 | 15 | 1013.3 |
| 20260503193015 | 22 | 352 | 6.4 | 14.5 | 0.00 | 0.00 | 0.00 | 15 | 1013.3 |
| 20260503192507 | 22 | 303 | 6.4 | 12.9 | 0.00 | 0.00 | 0.00 | 15 | 1013.4 |
| 20260503192008 | 22 | 263 | 6.4 | 12.9 | 0.00 | 0.00 | 0.00 | 14 | 1013.6 |
| 20260503191526 | 23 | 323 | 3.2 | 14.5 | 0.00 | 0.00 | 0.00 | 14 | 1013.6 |
| 20260503191006 | 23 | 9 | 3.2 | 16.1 | 0.00 | 0.00 | 0.00 | 14 | 1013.7 |
| 20260503190505 | 23 | 187 | 3.2 | 16.1 | 0.00 | 0.00 | 0.00 | 14 | 1013.7 |
| 20260503190007 | 23 | 342 | 3.2 | 20.9 | 0.00 | 0.00 | 0.00 | 15 | 1013.9 |
| 20260503185506 | 22 | 338 | 4.8 | 20.9 | 0.00 | 0.00 | 0.00 | 14 | 1013.9 |
| 20260503185008 | 22 | 322 | 8.0 | 20.9 | 0.00 | 0.00 | 0.00 | 15 | 1014.0 |
| 20260503184527 | 22 | 217 | 3.2 | 17.7 | 0.00 | 0.00 | 0.00 | 15 | 1014.1 |
| 20260503184013 | 22 | 274 | 3.2 | 17.7 | 0.00 | 0.00 | 0.00 | 15 | 1014.2 |
| 20260503183513 | 22 | 271 | 3.2 | 12.9 | 0.00 | 0.00 | 0.00 | 15 | 1014.4 |
| 20260503183004 | 22 | 330 | 1.6 | 16.1 | 0.00 | 0.00 | 0.00 | 15 | 1014.5 |
| 20260503182507 | 22 | 290 | 3.2 | 16.1 | 0.00 | 0.00 | 0.00 | 14 | 1014.6 |
| 20260503182010 | 22 | 329 | 6.4 | 22.5 | 0.00 | 0.00 | 0.00 | 15 | 1014.7 |
| 20260503181513 | 22 | 360 | 4.8 | 22.5 | 0.00 | 0.00 | 0.00 | 15 | 1014.8 |
| 20260503181008 | 22 | 304 | 3.2 | 17.7 | 0.00 | 0.00 | 0.00 | 15 | 1014.8 |
| 20260503180508 | 22 | 266 | 3.2 | 17.7 | 0.00 | 0.00 | 0.00 | 15 | 1015.0 |
| 20260503180030 | 22 | 225 | 3.2 | 22.5 | 0.00 | 0.00 | 0.00 | 15 | 1015.1 |
| 20260503175507 | 22 | 313 | 1.6 | 24.1 | 0.00 | 0.00 | 0.00 | 15 | 1015.2 |
| 20260503175011 | 22 | 352 | 4.8 | 24.1 | 0.00 | 0.00 | 0.00 | 15 | 1015.2 |
| 20260503174538 | 22 | 288 | 3.2 | 19.3 | 0.00 | 0.00 | 0.00 | 15 | 1015.4 |
| 20260503174010 | 22 | 352 | 4.8 | 19.3 | 0.00 | 0.00 | 0.00 | 16 | 1015.4 |
| 20260503173507 | 21 | 42 | 1.6 | 16.1 | 0.00 | 0.00 | 0.00 | 16 | 1015.5 |
| 20260503173018 | 21 | 334 | 4.8 | 17.7 | 0.00 | 0.00 | 0.00 | 16 | 1015.6 |
| 20260503172508 | 20 | 279 | 3.2 | 17.7 | 0.00 | 0.00 | 0.00 | 16 | 1015.7 |
| 20260503172012 | 20 | 344 | 6.4 | 17.7 | 0.00 | 0.00 | 0.00 | 17 | 1015.8 |
| 20260503171532 | 20 | 296 | 4.8 | 12.9 | 0.00 | 0.00 | 0.00 | 17 | 1015.8 |
| 20260503171013 | 20 | 247 | 1.6 | 12.9 | 0.00 | 0.00 | 0.00 | 17 | 1015.9 |
| 20260503170514 | 20 | 265 | 4.8 | 19.3 | 0.00 | 0.00 | 0.00 | 17 | 1015.9 |
| 20260503151003 | 17 | 338 | 3.2 | 14.5 | 0.00 | 0.00 | 0.00 | 22 | 1016.3 |
| 20260503150506 | 17 | 262 | 3.2 | 14.5 | 0.00 | 0.00 | 0.00 | 22 | 1016.4 |
| 20260503131006 | 15 | 321 | 3.2 | 22.5 | 0.00 | 0.00 | 0.00 | 24 | 1016.2 |
| 20260503130511 | 15 | 49 | 4.8 | 22.5 | 0.00 | 0.00 | 0.00 | 24 | 1016.1 |
| 20260503110514 | 9 | 118 | 0.0 | 3.2 | 0.00 | 0.00 | 0.00 | 45 | 1016.0 |
| 20260503081506 | 7 | 161 | 1.6 | 9.7 | 0.00 | 0.00 | 0.00 | 41 | 1016.4 |
| 20260503081004 | 7 | 187 | 1.6 | 8.0 | 0.00 | 0.00 | 0.00 | 41 | 1016.5 |
| 20260503080504 | 7 | 194 | 1.6 | 6.4 | 0.00 | 0.00 | 0.00 | 40 | 1016.5 |
| 20260503072504 | 6 | 128 | 0.0 | 3.2 | 0.00 | 0.00 | 0.00 | 40 | 1016.9 |
| 20260503072004 | 6 | 136 | 0.0 | 3.2 | 0.00 | 0.00 | 0.00 | 39 | 1017.0 |
| 20260503071522 | 6 | 140 | 0.0 | 3.2 | 0.00 | 0.00 | 0.00 | 39 | 1016.9 |
| 20260503071008 | 6 | 140 | 0.0 | 4.8 | 0.00 | 0.00 | 0.00 | 37 | 1016.9 |
| 20260503070511 | 6 | 138 | 0.0 | 4.8 | 0.00 | 0.00 | 0.00 | 37 | 1017.0 |
| 20260503055006 | 9 | 180 | 0.0 | 9.7 | 0.00 | 0.00 | 0.00 | 31 | 1017.3 |
| 20260503054533 | 9 | 195 | 0.0 | 9.7 | 0.00 | 0.00 | 0.00 | 29 | 1017.3 |
| 20260503054008 | 9 | 218 | 1.6 | 6.4 | 0.00 | 0.00 | 0.00 | 29 | 1017.2 |
| 20260503053510 | 8 | 231 | 1.6 | 12.9 | 0.00 | 0.00 | 0.00 | 29 | 1017.1 |
| 20260503053007 | 8 | 250 | 1.6 | 11.3 | 0.00 | 0.00 | 0.00 | 31 | 1017.1 |
| 20260503052503 | 8 | 199 | 0.0 | 3.2 | 0.00 | 0.00 | 0.00 | 32 | 1017.1 |
| 20260503052009 | 8 | 184 | 0.0 | 3.2 | 0.00 | 0.00 | 0.00 | 31 | 1017.1 |
| 20260503051529 | 8 | 229 | 0.0 | 3.2 | 0.00 | 0.00 | 0.00 | 30 | 1017.1 |
| 20260503051007 | 9 | 229 | 0.0 | 3.2 | 0.00 | 0.00 | 0.00 | 30 | 1017.2 |
| 20260503050508 | 9 | 180 | 0.0 | 3.2 | 0.00 | 0.00 | 0.00 | 30 | 1017.2 |
| 20260503050026 | 10 | 194 | 0.0 | 3.2 | 0.00 | 0.00 | 0.00 | 29 | 1017.2 |
| 20260503045508 | 10 | 194 | 0.0 | 3.2 | 0.00 | 0.00 | 0.00 | 28 | 1017.2 |
| 20260503045005 | 11 | 194 | 0.0 | 3.2 | 0.00 | 0.00 | 0.00 | 28 | 1017.3 |
| 20260503044514 | 11 | 194 | 0.0 | 6.4 | 0.00 | 0.00 | 0.00 | 28 | 1017.3 |
| 20260503044007 | 11 | 223 | 0.0 | 6.4 | 0.00 | 0.00 | 0.00 | 26 | 1017.3 |
| 20260503043510 | 11 | 189 | 0.0 | 6.4 | 0.00 | 0.00 | 0.00 | 25 | 1017.4 |
| 20260503043025 | 10 | 258 | 1.6 | 6.4 | 0.00 | 0.00 | 0.00 | 25 | 1017.4 |
| 20260503042508 | 10 | 258 | 1.6 | 3.2 | 0.00 | 0.00 | 0.00 | 26 | 1017.4 |
| 20260503042014 | 10 | 235 | 0.0 | 3.2 | 0.00 | 0.00 | 0.00 | 26 | 1017.5 |
| 20260503041533 | 10 | 188 | 1.6 | 3.2 | 0.00 | 0.00 | 0.00 | 29 | 1017.5 |
| 20260503041003 | 10 | 271 | 0.0 | 3.2 | 0.00 | 0.00 | 0.00 | 27 | 1017.4 |
| 20260503040503 | 10 | 266 | 1.6 | 3.2 | 0.00 | 0.00 | 0.00 | 27 | 1017.3 |
| 20260503040018 | 11 | 161 | 0.0 | 3.2 | 0.00 | 0.00 | 0.00 | 28 | 1017.3 |
| 20260503035508 | 11 | 171 | 0.0 | 3.2 | 0.00 | 0.00 | 0.00 | 26 | 1017.3 |
| 20260503035008 | 11 | 171 | 0.0 | 3.2 | 0.00 | 0.00 | 0.00 | 26 | 1017.3 |
| 20260503034526 | 11 | 171 | 0.0 | 3.2 | 0.00 | 0.00 | 0.00 | 26 | 1017.3 |
| 20260503034008 | 12 | 171 | 0.0 | 4.8 | 0.00 | 0.00 | 0.00 | 26 | 1017.3 |
| 20260503033510 | 12 | 221 | 0.0 | 8.0 | 0.00 | 0.00 | 0.00 | 23 | 1017.3 |
| 20260503033011 | 11 | 212 | 1.6 | 8.0 | 0.00 | 0.00 | 0.00 | 25 | 1017.3 |
| 20260503032507 | 11 | 237 | 0.0 | 4.8 | 0.00 | 0.00 | 0.00 | 26 | 1017.4 |
| 20260503032009 | 11 | 242 | 1.6 | 3.2 | 0.00 | 0.00 | 0.00 | 28 | 1017.4 |
| 20260503031525 | 12 | 217 | 0.0 | 3.2 | 0.00 | 0.00 | 0.00 | 28 | 1017.4 |
| 20260503031010 | 12 | 217 | 0.0 | 3.2 | 0.00 | 0.00 | 0.00 | 26 | 1017.4 |
| 20260503030511 | 12 | 217 | 0.0 | 3.2 | 0.00 | 0.00 | 0.00 | 25 | 1017.4 |
| 20260503030034 | 13 | 218 | 0.0 | 3.2 | 0.00 | 0.00 | 0.00 | 24 | 1017.4 |
| 20260503025510 | 13 | 218 | 0.0 | 3.2 | 0.00 | 0.00 | 0.00 | 26 | 1017.3 |
| 20260503025003 | 13 | 218 | 0.0 | 3.2 | 0.00 | 0.00 | 0.00 | 25 | 1017.3 |
| 20260503024519 | 13 | 219 | 0.0 | 3.2 | 0.00 | 0.00 | 0.00 | 22 | 1017.2 |
| 20260503024010 | 14 | 217 | 0.0 | 3.2 | 0.00 | 0.00 | 0.00 | 23 | 1017.1 |
| 20260503023510 | 14 | 217 | 0.0 | 3.2 | 0.00 | 0.00 | 0.00 | 22 | 1017.1 |
| 20260503023024 | 15 | 217 | 0.0 | 3.2 | 0.00 | 0.00 | 0.00 | 21 | 1017.1 |
| 20260503022510 | 15 | 216 | 0.0 | 3.2 | 0.00 | 0.00 | 0.00 | 20 | 1017.0 |
| 20260503022013 | 16 | 213 | 0.0 | 3.2 | 0.00 | 0.00 | 0.00 | 19 | 1017.0 |
| 20260503021534 | 16 | 204 | 0.0 | 3.2 | 0.00 | 0.00 | 0.00 | 18 | 1016.9 |
| 20260503021007 | 17 | 67 | 0.0 | 3.2 | 0.00 | 0.00 | 0.00 | 16 | 1016.8 |
| 20260503020506 | 17 | 67 | 0.0 | 0.0 | 0.00 | 0.00 | 0.00 | 15 | 1016.8 |
| 20260503020022 | 18 | 67 | 0.0 | 0.0 | 0.00 | 0.00 | 0.00 | 14 | 1016.8 |
| 20260503015509 | 18 | 67 | 0.0 | 3.2 | 0.00 | 0.00 | 0.00 | 14 | 1016.7 |
| 20260503015008 | 18 | 67 | 0.0 | 3.2 | 0.00 | 0.00 | 0.00 | 13 | 1016.7 |
| 20260503014525 | 19 | 67 | 0.0 | 3.2 | 0.00 | 0.00 | 0.00 | 13 | 1016.6 |
| 20260503014009 | 19 | 38 | 0.0 | 3.2 | 0.00 | 0.00 | 0.00 | 12 | 1016.6 |
| 20260503013509 | 20 | 88 | 0.0 | 3.2 | 0.00 | 0.00 | 0.00 | 12 | 1016.6 |
| 20260503013027 | 20 | 49 | 1.6 | 4.8 | 0.00 | 0.00 | 0.00 | 12 | 1016.4 |
| 20260503012505 | 20 | 108 | 0.0 | 6.4 | 0.00 | 0.00 | 0.00 | 12 | 1016.4 |
| 20260503012012 | 20 | 46 | 1.6 | 6.4 | 0.00 | 0.00 | 0.00 | 11 | 1016.4 |
| 20260503011521 | 20 | 112 | 1.6 | 3.2 | 0.00 | 0.00 | 0.00 | 11 | 1016.3 |
| 20260503011009 | 20 | 73 | 0.0 | 4.8 | 0.00 | 0.00 | 0.00 | 12 | 1016.3 |
| 20260503010511 | 21 | 113 | 1.6 | 4.8 | 0.00 | 0.00 | 0.00 | 12 | 1016.3 |
| 20260503010032 | 21 | 319 | 0.0 | 4.8 | 0.00 | 0.00 | 0.00 | 11 | 1016.2 |
| 20260503005511 | 21 | 90 | 0.0 | 4.8 | 0.00 | 0.00 | 0.00 | 12 | 1016.2 |
| 20260503005007 | 21 | 105 | 0.0 | 4.8 | 0.00 | 0.00 | 0.00 | 12 | 1016.3 |
| 20260503004515 | 21 | 62 | 1.6 | 9.7 | 0.00 | 0.00 | 0.00 | 10 | 1016.2 |
| 20260503004007 | 21 | 97 | 0.0 | 9.7 | 0.00 | 0.00 | 0.00 | 12 | 1016.3 |
| 20260503003509 | 21 | 24 | 3.2 | 9.7 | 0.00 | 0.00 | 0.00 | 10 | 1016.3 |
| 20260503003034 | 22 | 100 | 3.2 | 8.0 | 0.00 | 0.00 | 0.00 | 10 | 1016.3 |
| 20260503002509 | 22 | 99 | 0.0 | 6.4 | 0.00 | 0.00 | 0.00 | 10 | 1016.3 |
| 20260503002004 | 22 | 136 | 0.0 | 6.4 | 0.00 | 0.00 | 0.00 | 11 | 1016.3 |
| 20260503001509 | 22 | 103 | 3.2 | 6.4 | 0.00 | 0.00 | 0.00 | 11 | 1016.3 |
| 20260503001004 | 22 | 176 | 1.6 | 4.8 | 0.00 | 0.00 | 0.00 | 11 | 1016.3 |
| 20260503000504 | 22 | 81 | 1.6 | 4.8 | 0.00 | 0.00 | 0.00 | 10 | 1016.4 |
| 20260503000005 | 22 | 144 | 1.6 | 6.4 | 0.00 | 0.00 | 0.00 | 11 | 1016.4 |
| 20260502235502 | 22 | 90 | 1.6 | 6.4 | 0.00 | 0.00 | 0.00 | 12 | 1016.4 |
| 20260502235003 | 22 | 129 | 1.6 | 11.3 | 0.00 | 0.00 | 0.00 | 11 | 1016.5 |
| 20260502234507 | 22 | 114 | 1.6 | 11.3 | 0.00 | 0.00 | 0.00 | 12 | 1016.5 |
| 20260502234003 | 22 | 338 | 1.6 | 12.9 | 0.00 | 0.00 | 0.00 | 11 | 1016.5 |
| 20260502233506 | 22 | 21 | 4.8 | 12.9 | 0.00 | 0.00 | 0.00 | 11 | 1016.5 |
| 20260502233008 | 22 | 100 | 3.2 | 9.7 | 0.00 | 0.00 | 0.00 | 12 | 1016.6 |
| 20260502232504 | 22 | 49 | 3.2 | 6.4 | 0.00 | 0.00 | 0.00 | 10 | 1016.6 |
| 20260502232006 | 23 | 111 | 1.6 | 8.0 | 0.00 | 0.00 | 0.00 | 11 | 1016.6 |
| 20260502231503 | 23 | 128 | 3.2 | 9.7 | 0.00 | 0.00 | 0.00 | 11 | 1016.7 |
| 20260502231004 | 23 | 143 | 1.6 | 9.7 | 0.00 | 0.00 | 0.00 | 10 | 1016.8 |
| 20260502230503 | 23 | 100 | 3.2 | 8.0 | 0.00 | 0.00 | 0.00 | 12 | 1016.8 |
| 20260502230009 | 23 | 80 | 1.6 | 9.7 | 0.00 | 0.00 | 0.00 | 12 | 1016.8 |
| 20260502225502 | 22 | 218 | 3.2 | 9.7 | 0.00 | 0.00 | 0.00 | 11 | 1016.8 |
| 20260502225005 | 23 | 65 | 1.6 | 8.0 | 0.00 | 0.00 | 0.00 | 12 | 1016.8 |
| 20260502224509 | 23 | 153 | 3.2 | 12.9 | 0.00 | 0.00 | 0.00 | 11 | 1016.8 |
| 20260502224002 | 22 | 76 | 6.4 | 12.9 | 0.00 | 0.00 | 0.00 | 12 | 1016.9 |
| 20260502223503 | 23 | 74 | 3.2 | 8.0 | 0.00 | 0.00 | 0.00 | 11 | 1017.0 |
| 20260502223007 | 22 | 180 | 1.6 | 9.7 | 0.00 | 0.00 | 0.00 | 12 | 1017.0 |
| 20260502222502 | 22 | 162 | 3.2 | 9.7 | 0.00 | 0.00 | 0.00 | 12 | 1017.1 |
| 20260502222003 | 22 | 159 | 1.6 | 17.7 | 0.00 | 0.00 | 0.00 | 12 | 1017.1 |
| 20260502221512 | 22 | 98 | 4.8 | 17.7 | 0.00 | 0.00 | 0.00 | 11 | 1017.3 |
| 20260502221003 | 22 | 38 | 3.2 | 12.9 | 0.00 | 0.00 | 0.00 | 12 | 1017.3 |
| 20260502220506 | 22 | 67 | 1.6 | 12.9 | 0.00 | 0.00 | 0.00 | 12 | 1017.3 |
| 20260502220012 | 22 | 126 | 3.2 | 14.5 | 0.00 | 0.00 | 0.00 | 13 | 1017.3 |
| 20260502215504 | 21 | 265 | 4.8 | 14.5 | 0.00 | 0.00 | 0.00 | 12 | 1017.4 |
| 20260502215004 | 22 | 48 | 6.4 | 14.5 | 0.00 | 0.00 | 0.00 | 12 | 1017.5 |
| 20260502214510 | 22 | 44 | 8.0 | 19.3 | 0.00 | 0.00 | 0.00 | 12 | 1017.7 |
| 20260502214006 | 22 | 65 | 9.7 | 19.3 | 0.00 | 0.00 | 0.00 | 13 | 1017.7 |
| 20260502213506 | 22 | 55 | 3.2 | 14.5 | 0.00 | 0.00 | 0.00 | 12 | 1017.8 |
| 20260502213024 | 22 | 34 | 3.2 | 11.3 | 0.00 | 0.00 | 0.00 | 12 | 1017.9 |
| 20260502212508 | 23 | 58 | 3.2 | 11.3 | 0.00 | 0.00 | 0.00 | 11 | 1018.0 |
| 20260502212007 | 23 | 125 | 1.6 | 8.0 | 0.00 | 0.00 | 0.00 | 13 | 1018.0 |
| 20260502211509 | 22 | 186 | 3.2 | 8.0 | 0.00 | 0.00 | 0.00 | 12 | 1018.2 |
| 20260502211003 | 22 | 235 | 1.6 | 8.0 | 0.00 | 0.00 | 0.00 | 13 | 1018.2 |
| 20260502210503 | 22 | 169 | 3.2 | 6.4 | 0.00 | 0.00 | 0.00 | 12 | 1018.4 |
| 20260502210012 | 22 | 97 | 3.2 | 9.7 | 0.00 | 0.00 | 0.00 | 12 | 1018.5 |
| 20260502205505 | 22 | 112 | 3.2 | 14.5 | 0.00 | 0.00 | 0.00 | 13 | 1018.5 |
| 20260502205005 | 22 | 165 | 4.8 | 14.5 | 0.00 | 0.00 | 0.00 | 13 | 1018.7 |
| 20260502204513 | 22 | 107 | 3.2 | 14.5 | 0.00 | 0.00 | 0.00 | 14 | 1018.7 |
| 20260502204006 | 22 | 82 | 6.4 | 14.5 | 0.00 | 0.00 | 0.00 | 14 | 1018.7 |